Location: Sigmaringen
(48.0900°N, 9.2120°E)
Time: 05:01:01
(UTC+01:00)

Tiangong 2 - Visible Passes

Search period start: 25 November 2017 00:00
Search period end: 05 December 2017 00:00
Orbit: 386 x 392 km, 42.8° (Epoch: 24 November)

Date Brightness Start Highest point End Pass type
(mag) Time Alt. Az. Time Alt. Az. Time Alt. Az.
27 Nov 4.0 06:49:54 10° SSW 06:51:56 16° SSE 06:53:57 10° ESE visible
28 Nov 4.2 05:53:00 10° S 05:53:56 11° SSE 05:54:53 10° SE visible
29 Nov 3.4 06:29:30 10° SW 06:32:01 21° SSE 06:34:33 10° ESE visible
30 Nov 3.6 05:33:20 15° S 05:33:58 16° SSE 05:36:03 10° ESE visible
30 Nov 2.8 07:07:23 10° WSW 07:10:15 30° S 07:13:07 10° ESE visible
01 Dec 2.9 06:10:23 17° SW 06:12:07 27° S 06:14:52 10° ESE visible
02 Dec 3.7 05:14:59 19° SE 05:14:59 19° SE 05:16:32 10° ESE visible
02 Dec 2.6 06:47:28 10° WSW 06:50:20 31° S 06:53:14 10° ESE visible
03 Dec 2.4 05:51:49 29° S 05:52:10 30° S 05:55:02 10° ESE visible
04 Dec 4.4 04:56:17 13° ESE 04:56:17 13° ESE 04:56:45 10° ESE visible
04 Dec 2.6 06:28:35 17° WSW 06:30:23 29° S 06:33:13 10° SE visible
